GW3759 Weather Reports


Display with metric or nautical units.
time (UTC)temp
F
wind
direction
speed
MPH
gust
MPH
rain 1hr
in
rain 24hr
in
rain mn
in
humidity
%
barometer
mb
20260904044505 79 53 4.0 32.0 0.00 0.00 0.00 77 1016.7
20260904043003 81 338 3.0 13.0 0.00 0.00 0.00 86 1016.1
20260904041506 82 150 3.0 6.0 0.00 0.00 0.00 88 1015.0
20260904040003 81 47 0.0 3.0 0.00 0.00 0.00 90 1014.9
20260904034504 81 134 1.0 5.0 0.00 0.00 0.00 91 1014.8
20260904033003 80 156 0.0 0.0 0.00 0.00 0.00 93 1014.8
20260904031504 81 156 0.0 0.0 0.00 0.00 0.00 93 1014.3
20260904030003 81 149 0.0 0.0 0.00 0.00 0.00 93 1014.1
20260904024502 81 277 0.0 0.0 0.00 0.00 0.00 95 1014.3
20260904023003 81 277 0.0 0.0 0.00 0.00 0.00 95 1014.3
20260904021506 80 277 0.0 0.0 0.00 0.00 0.00 94 1014.5
20260904020004 80 277 0.0 0.0 0.00 0.00 0.00 94 1014.6
20260904014503 80 277 0.0 0.0 0.00 0.00 0.00 94 1014.4
20260904013003 81 277 0.0 0.0 0.00 0.00 0.00 94 1014.3
20260904011503 81 277 0.0 0.0 0.00 0.00 0.00 93 1014.6
20260904010008 81 277 0.0 0.0 0.00 0.00 0.00 92 1014.8
20260904004513 81 277 0.0 0.0 0.00 0.00 0.00 92 1015.0
20260904003010 82 277 0.0 0.0 0.00 0.00 0.00 91 1015.0
20260904001502 82 277 0.0 0.0 0.00 0.00 0.00 91 1015.1
20260904000003 83 277 0.0 0.0 0.00 0.00 0.00 90 1015.0
20260903234505 83 277 0.0 2.0 0.00 0.00 0.00 89 1014.5
20260903233013 84 277 0.0 2.0 0.00 0.00 0.00 88 1014.5
20260903231516 85 277 0.0 1.0 0.00 0.00 0.00 85 1014.4
20260903230009 86 277 0.0 1.0 0.00 0.00 0.00 83 1014.4
20260903224505 87 277 0.0 0.0 0.00 0.00 0.00 82 1014.2
20260903223008 87 277 0.0 2.0 0.00 0.00 0.00 80 1014.1
20260903221503 88 132 1.0 5.0 0.00 0.00 0.00 77 1014.1
20260903220022 88 142 3.0 7.0 0.00 0.00 0.00 76 1014.2
20260903214503 88 163 2.0 5.0 0.00 0.00 0.00 75 1014.2
20260903213003 88 165 2.0 4.0 0.00 0.00 0.00 74 1014.4
20260903211503 88 153 0.0 2.0 0.00 0.00 0.00 76 1014.5
20260903210004 87 161 2.0 5.0 0.00 0.02 0.00 76 1014.7
20260903204503 86 173 2.0 5.0 0.00 0.02 0.00 78 1014.9
20260903203007 86 128 0.0 2.0 0.00 0.02 0.00 78 1015.0
20260903201506 85 350 0.0 1.0 0.00 0.02 0.00 79 1015.3
20260903200006 85 350 0.0 0.0 0.00 0.02 0.00 80 1015.4
20260903194503 85 350 0.0 0.0 0.00 0.02 0.00 79 1015.6
20260903193004 85 350 0.0 0.0 0.00 0.02 0.00 77 1015.9
20260903191506 85 37 0.0 1.0 0.00 0.02 0.00 77 1016.2
20260903190004 85 37 0.0 2.0 0.00 0.02 0.00 77 1016.0
20260903184504 85 37 0.0 1.0 0.00 0.02 0.00 77 1016.3
20260903183004 85 37 0.0 1.0 0.00 0.02 0.00 76 1016.6
20260903181510 85 37 0.0 1.0 0.00 0.02 0.00 78 1016.8
20260903180008 84 55 0.0 3.0 0.00 0.02 0.00 78 1017.0
20260903174509 84 152 0.0 4.0 0.00 0.02 0.00 79 1017.1
20260903173006 84 336 0.0 11.0 0.00 0.02 0.00 77 1017.2
20260903171504 83 49 3.0 10.0 0.00 0.02 0.00 79 1017.6
20260903170010 82 161 1.0 2.0 0.00 0.02 0.00 80 1017.4
20260903164508 81 173 1.0 5.0 0.00 0.02 0.00 84 1017.5
20260903163013 80 182 0.0 2.0 0.00 0.02 0.00 85 1017.8
20260903161521 79 182 0.0 4.0 0.00 0.02 0.00 85 1018.0
20260903160011 78 179 2.0 4.0 0.00 0.02 0.00 86 1018.2
20260903154507 78 180 1.0 3.0 0.00 0.02 0.00 87 1018.2
20260903153013 77 352 1.0 3.0 0.00 0.02 0.00 88 1018.4
20260903151511 76 183 0.0 2.0 0.00 0.02 0.00 90 1018.4
20260903150012 76 117 0.0 2.0 0.00 0.02 0.00 90 1018.2
20260903144529 76 313 1.0 4.0 0.00 0.02 0.00 90 1018.0
20260903143014 75 338 1.0 5.0 0.00 0.02 0.00 91 1018.0
20260903141512 75 342 0.0 5.0 0.00 0.02 0.00 92 1018.0
20260903140017 74 352 3.0 8.0 0.00 0.02 0.00 93 1018.3
20260903134511 74 313 1.0 6.0 0.00 0.02 0.00 93 1018.0
20260903133020 74 325 3.0 5.0 0.00 0.02 0.00 93 1018.0
20260903131515 74 346 4.0 9.0 0.00 0.02 0.00 94 1018.4
20260903130020 74 319 2.0 5.0 0.00 0.02 0.00 93 1018.4
20260903124518 73 302 2.0 11.0 0.00 0.02 0.00 94 1018.4
20260903123014 74 5 4.0 10.0 0.00 0.02 0.00 93 1018.5
20260903121507 73 165 0.0 4.0 0.00 0.02 0.00 95 1017.9
20260903120007 72 153 0.0 4.0 0.00 0.02 0.00 95 1017.6
20260903114504 72 120 1.0 4.0 0.00 0.02 0.00 95 1017.5
20260903113004 72 169 2.0 4.0 0.00 0.02 0.00 95 1017.4
20260903111517 71 182 1.0 4.0 0.00 0.02 0.00 95 1017.3
20260903110004 71 169 2.0 5.0 0.00 0.02 0.00 95 1017.0
20260903104505 72 168 2.0 4.0 0.00 0.02 0.00 95 1016.8
20260903103012 72 170 1.0 4.0 0.00 0.02 0.00 96 1016.8
20260903101505 71 146 0.0 1.0 0.00 0.02 0.00 95 1016.8
20260903100009 71 146 0.0 1.0 0.00 0.02 0.00 95 1016.7
20260903094504 71 146 0.0 2.0 0.00 0.02 0.00 95 1016.9
20260903093008 71 146 0.0 1.0 0.00 0.02 0.00 95 1016.9
20260903091515 72 146 0.0 0.0 0.00 0.02 0.00 95 1016.7
20260903090012 72 146 0.0 2.0 0.00 0.02 0.00 95 1016.9
20260903084516 72 146 0.0 1.0 0.00 0.02 0.00 94 1016.8
20260903083009 72 146 0.0 1.0 0.00 0.02 0.00 95 1016.6
20260903081516 72 146 0.0 0.0 0.00 0.02 0.00 95 1016.5
20260903080016 72 146 0.0 0.0 0.00 0.02 0.00 94 1016.5
20260903074526 72 146 0.0 2.0 0.00 0.02 0.00 95 1016.4
20260903073023 72 52 0.0 0.0 0.00 0.02 0.00 94 1016.3
20260903071508 72 52 0.0 0.0 0.00 0.02 0.00 94 1016.3
20260903070008 72 52 0.0 0.0 0.00 0.02 0.00 94 1016.5
20260903064523 72 52 0.0 0.0 0.00 0.02 0.00 94 1016.8
20260903063027 72 52 0.0 1.0 0.00 0.02 0.00 94 1016.9
20260903061503 72 52 0.0 0.0 0.00 0.02 0.00 94 1017.1
20260903060015 72 52 0.0 0.0 0.00 0.02 0.00 93 1017.2
20260903054520 73 53 0.0 1.0 0.00 0.02 0.00 93 1017.4
20260903053016 73 52 0.0 0.0 0.00 0.02 0.00 92 1017.5
20260903051505 73 53 0.0 1.0 0.00 0.02 0.00 92 1017.4
20260903050016 73 53 0.0 0.0 0.00 0.02 0.00 92 1017.4